Regional Weather Roundup
Issued by NWS Austin/San Antonio, TX

Home | Current Version | Previous Version | Text Only | Print | Product List | Glossary On
Versions: 1 2 3 4 5 6 7 8 9 10 11 12 13 14 15 16 17 18 19 20 21 22 23 24 25 26 27 28 29 30 31 32 33 34 35 36 37 38 39 40 41 42 43 44 45 46 47 48 49 50
000
ASUS44 KEWX 160301
RWREWX
SOUTH TEXAS REGIONAL WEATHER ROUNDUP
NATIONAL WEATHER SERVICE AUSTIN/SAN ANTONIO TX
1000 PM CDT SAT JUN 15 2019

NOTE: "FAIR" INDICATED FEW OR NO CLOUDS BELOW 12,000 FEET WITH NO
SIGNIFICANT WEATHER AND/OR OBSTRUCTIONS TO VISIBILITY.

* - THESE STATIONS ARE NOT NWS OR FAA STATIONS...AND ARE NOT SUBJECT
    TO NWS AND FAA QUALITY CONTROL.

TXZ171-172-183>190-160400-
TEXAS HILL COUNTRY AND EDWARDS PLATEAU

CITY           SKY/WX    TMP DP  RH WIND       PRES   REMARKS
JUNCTION       CLEAR     83  66  56 NW7       29.88R
*LLANO         CLEAR     84  66  54 SE5       29.85R
BURNET         CLEAR     83  69  62 SE10G21   29.87R
*HORSESHOE BAY CLEAR     82  70  65 SE9       29.85R
*KERRVILLE     CLEAR     82  72  71 SE10G18   29.87R
*FREDERICKSBRG CLEAR     82  67  60 S7        29.87R
*ROCKSPRINGS   CLEAR     81  64  57 SE9       29.91S
*BOERNE STAGE  MOCLDY    81  72  74 SE13G20   29.88R
*CASTROVILLE   CLEAR     84  68  58 SE10      29.86R
HONDO          CLEAR     85  72  65 SE22      29.83R HX  91
*UVALDE        CLEAR     82  68  61 SE7       29.82R
DEL RIO        CLEAR     87  71  58 E3        29.76R HX  93
LAUGHLIN AFB   CLEAR     83  73  71 SE6       29.78R
CARRIZO SPRGS  CLEAR     91  64  40 SE12G17   29.76R HX  93
$$

TXZ173-191>194-202-209-217>225-228-160400-
CENTRAL AND SOUTH CENTRAL TEXAS

CITY           SKY/WX    TMP DP  RH WIND       PRES   REMARKS
GEORGETOWN     CLEAR     84  71  65 S13G18    29.86R
AUSTIN/BERGSTM PTCLDY    84  71  65 S12       29.85R
AUSTIN/MABRY   CLEAR     84  69  60 VRB7      29.86R
*AUSTIN/EXEC   PTCLDY    82  72  69 S13       29.86R
*LAGO VISTA    CLEAR     81  71  71 S13G24    29.87R
SAN MARCOS     CLEAR     82  72  71 S15       29.87R
NEW BRAUNFELS  CLEAR     82  71  69 S15       29.85R
RANDOLPH AFB   CLEAR     82  71  70 SE15      29.86R
PT SAN ANTONIO CLEAR     83  72  68 SE14      29.83R
SAN ANTONIO    MOCLDY    83  71  67 SE20G25   29.86R
STINSON FIELD  CLEAR     84  69  60 SE16G23   29.83R
*LA GRANGE     CLEAR     82  75  79 S6        29.86R
*GIDDINGS      CLEAR     85  75  71 S10       29.88R HX  93
*GONZALES      CLEAR     82  73  76 S13       29.86R
$$

TXZ163>164-176>182-195>201-210>213-226-227-235-160400-
SOUTHEAST TEXAS

CITY           SKY/WX    TMP DP  RH WIND       PRES   REMARKS
COLLEGE STN    CLEAR     83  73  72 S16G22    29.87R
*BRYAN         CLEAR     84  74  70 S15G21    29.88R HX  91
*CALDWELL      PTCLDY    82  73  74 S17G25    29.87R
*CROCKETT        N/A     81  73  78 SE8       29.91R
*BRENHAM       CLEAR     83  73  72 S9G17     29.88R
HUNTSVILLE     CLEAR     85  70  60 S8        29.89R
CONROE         PTCLDY    83  71  67 S10       29.90R
HOUSTON BUSH   PTCLDY    84  75  74 S14G21    29.90R HX  92
HOUSTON HOBBY  FAIR      83  74  74 S12       29.91R
*HOUSTON SW AP FAIR      80  75  86 S5        29.92R
PEARLAND       FAIR      83  75  77 S8        29.92R HX  90
HOUSTON HOOKS  FAIR      83  70  64 S7        29.90R
ELLINGTON FLD  PTCLDY    82  73  74 S10       29.89R
SUGAR LAND     FAIR      82  75  79 S13       29.90R
*HOUSTON EXEC  FAIR      81  73  78 S9        29.91R
*CLEVELAND MUN FAIR      80  75  85 S5        29.92R
*WHARTON       PTCLDY    79  72  80 SE10      29.90S
*COLUMBUS      FAIR      81  72  74 S8G16     29.89R
*EAGLE LAKE    CLEAR     82  76  84 MISG      29.89R
$$

TXZ214>216-236>238-160400-
THE UPPER TEXAS COAST

CITY           SKY/WX    TMP DP  RH WIND       PRES   REMARKS
*ORANGE        FAIR      82  78  90 S7        29.96R HX  91
PORT ARTHUR    FAIR      83  75  77 S12       29.93R HX  90
GALVESTON      MOCLDY    81  76  84 S18       29.93R
ANGLETON       FAIR      82  75  79 S13       29.91R
*BAY CITY      CLEAR     83  77  82 SE8       29.90R HX  92
PALACIOS       PTCLDY    85  74  69 S15G23    29.89R HX  92
$$

TXZ229>234-239>247-160400-
TEXAS COASTAL BEND AND RIO GRANDE PLAINS

CITY           SKY/WX    TMP DP  RH WIND       PRES   REMARKS
VICTORIA       CLEAR     81  74  79 SE15      29.87R
*BEEVILLE      CLEAR     84  73  70 SE15      29.85R HX  90
ROCKPORT       LGT RAIN  83  72  69 S16G28    29.86R
*PORT ARANSAS    N/A     84  76  75 SE24      29.88R HX  92
*PORT LAVACA   CLEAR     83  76  81 S10       29.88R HX  91
*INGLESIDE     PTCLDY    84  76  76 S20G25    29.87R HX  92
CORPUS CHRISTI MOCLDY    83  75  77 SE14      29.85S HX  90
CORPUS NAS     PTCLDY    83  77  82 S18G28    29.86R HX  92
*ROBSTOWN      CLEAR     80  75  84 SE10      29.86R
ALICE          CLEAR     82  75  79 SE14      29.84R
KINGSVILLE NAS PTCLDY    83  75  77 SE13      29.84R HX  90
COTULLA        CLEAR     90  69  50 SE13      29.79R HX  94
LAREDO         CLEAR     90  70  51 SE22      29.78R HX  95
$$

TXZ248>255-160400-
DEEP SOUTH TEXAS

CITY           SKY/WX    TMP DP  RH WIND       PRES   REMARKS
BROWNSVILLE    FAIR      84  76  76 SE18G26   29.86R HX  93
PORT ISABEL    FAIR      83  74  74 SE18G29   29.85R
HARLINGEN      CLEAR     82  75  79 SE20      29.84R
*HEBBRONVILLE  CLEAR     84  67  56 S15       29.84S
MCALLEN        PTCLDY    84  74  71 SE17      29.84R HX  91
*WESLACO       PTCLDY    82  74  77 SE14G22   29.83S
FALFURRIAS     CLEAR     83  73  71 SE12G17   29.84R HX  90
EDINBURG       FAIR      84  74  71 SE13      29.84R HX  91
*ZAPATA        FAIR      88  67  49 SE17G23   29.82R HX  91
$$

TXZ213>215-236>238-242>244-246-247-251-254-255-160400-
CMAN STATIONS

STATION/POSITION TIME  TEMP    WIND        PRES    WAVE
                       AIR SEA DIR/SP/G            HT/PER
                 (UTC) (F)     (DEG/KT/KT) (MB)    (FT/S)
PORT ARANSAS     0200   84 86  140/ 24/ 27 1010.9
$$




USA.gov is the U.S. government's official web portal to all federal, state and local government web resources and services.